<?xml version="1.0"?>
<gpx xmlns="http://www.topografix.com/GPX/1/1" xmlns:xsi="http://www.w3.org/2001/XMLSchema-instance" version="1.1" creator="GPX RubyGem 1.0.0 -- http://dougfales.github.io/gpx/" xsi:schemaLocation="http://www.topografix.com/GPX/1/1 http://www.topografix.com/GPX/1/1/gpx.xsd">
  <metadata>
    <name/>
    <time>2026-05-07T15:46:49+00:00</time>
    <bound minlat="90.0" minlon="180.0" maxlat="-90.0" maxlon="-180.0"/>
  </metadata>
  <trk>
    <name/>
    <trkseg>
      <trkpt lat="45.712241" lon="10.181556">
        <time>1970-01-01T00:00:00+00:00</time>
        <ele>445.0</ele>
      </trkpt>
      <trkpt lat="45.71242" lon="10.18144">
        <time>1970-01-01T00:00:00+00:00</time>
        <ele>446.0</ele>
      </trkpt>
      <trkpt lat="45.712862" lon="10.181293">
        <time>1970-01-01T00:00:00+00:00</time>
        <ele>454.0</ele>
      </trkpt>
      <trkpt lat="45.713194" lon="10.181195">
        <time>1970-01-01T00:00:00+00:00</time>
        <ele>460.0</ele>
      </trkpt>
      <trkpt lat="45.713488" lon="10.180934">
        <time>1970-01-01T00:00:00+00:00</time>
        <ele>459.0</ele>
      </trkpt>
      <trkpt lat="45.713763" lon="10.180609">
        <time>1970-01-01T00:00:00+00:00</time>
        <ele>455.0</ele>
      </trkpt>
      <trkpt lat="45.714205" lon="10.180208">
        <time>1970-01-01T00:00:00+00:00</time>
        <ele>458.0</ele>
      </trkpt>
      <trkpt lat="45.714614" lon="10.179888">
        <time>1970-01-01T00:00:00+00:00</time>
        <ele>467.0</ele>
      </trkpt>
      <trkpt lat="45.714716" lon="10.179804">
        <time>1970-01-01T00:00:00+00:00</time>
        <ele>472.0</ele>
      </trkpt>
      <trkpt lat="45.714749" lon="10.179683">
        <time>1970-01-01T00:00:00+00:00</time>
        <ele>472.0</ele>
      </trkpt>
      <trkpt lat="45.714896" lon="10.179549">
        <time>1970-01-01T00:00:00+00:00</time>
        <ele>476.0</ele>
      </trkpt>
      <trkpt lat="45.715104" lon="10.17943">
        <time>1970-01-01T00:00:00+00:00</time>
        <ele>484.0</ele>
      </trkpt>
      <trkpt lat="45.715171" lon="10.179415">
        <time>1970-01-01T00:00:00+00:00</time>
        <ele>488.0</ele>
      </trkpt>
      <trkpt lat="45.715357" lon="10.179243">
        <time>1970-01-01T00:00:00+00:00</time>
        <ele>488.0</ele>
      </trkpt>
      <trkpt lat="45.715502" lon="10.17908">
        <time>1970-01-01T00:00:00+00:00</time>
        <ele>486.0</ele>
      </trkpt>
      <trkpt lat="45.715667" lon="10.178949">
        <time>1970-01-01T00:00:00+00:00</time>
        <ele>489.0</ele>
      </trkpt>
      <trkpt lat="45.715788" lon="10.178551">
        <time>1970-01-01T00:00:00+00:00</time>
        <ele>477.0</ele>
      </trkpt>
      <trkpt lat="45.716006" lon="10.178632">
        <time>1970-01-01T00:00:00+00:00</time>
        <ele>494.0</ele>
      </trkpt>
      <trkpt lat="45.715995" lon="10.178215">
        <time>1970-01-01T00:00:00+00:00</time>
        <ele>481.0</ele>
      </trkpt>
      <trkpt lat="45.716084" lon="10.178111">
        <time>1970-01-01T00:00:00+00:00</time>
        <ele>484.0</ele>
      </trkpt>
      <trkpt lat="45.716084" lon="10.178111">
        <time>1970-01-01T00:00:00+00:00</time>
        <ele>484.0</ele>
      </trkpt>
      <trkpt lat="45.715995" lon="10.178215">
        <time>1970-01-01T00:00:00+00:00</time>
        <ele>481.0</ele>
      </trkpt>
      <trkpt lat="45.716006" lon="10.178632">
        <time>1970-01-01T00:00:00+00:00</time>
        <ele>494.0</ele>
      </trkpt>
      <trkpt lat="45.715788" lon="10.178551">
        <time>1970-01-01T00:00:00+00:00</time>
        <ele>477.0</ele>
      </trkpt>
      <trkpt lat="45.715667" lon="10.178949">
        <time>1970-01-01T00:00:00+00:00</time>
        <ele>489.0</ele>
      </trkpt>
      <trkpt lat="45.715502" lon="10.17908">
        <time>1970-01-01T00:00:00+00:00</time>
        <ele>486.0</ele>
      </trkpt>
      <trkpt lat="45.715357" lon="10.179243">
        <time>1970-01-01T00:00:00+00:00</time>
        <ele>488.0</ele>
      </trkpt>
      <trkpt lat="45.715171" lon="10.179415">
        <time>1970-01-01T00:00:00+00:00</time>
        <ele>488.0</ele>
      </trkpt>
      <trkpt lat="45.715104" lon="10.17943">
        <time>1970-01-01T00:00:00+00:00</time>
        <ele>484.0</ele>
      </trkpt>
      <trkpt lat="45.714896" lon="10.179549">
        <time>1970-01-01T00:00:00+00:00</time>
        <ele>476.0</ele>
      </trkpt>
      <trkpt lat="45.714749" lon="10.179683">
        <time>1970-01-01T00:00:00+00:00</time>
        <ele>472.0</ele>
      </trkpt>
      <trkpt lat="45.714716" lon="10.179804">
        <time>1970-01-01T00:00:00+00:00</time>
        <ele>472.0</ele>
      </trkpt>
      <trkpt lat="45.714614" lon="10.179888">
        <time>1970-01-01T00:00:00+00:00</time>
        <ele>467.0</ele>
      </trkpt>
      <trkpt lat="45.714205" lon="10.180208">
        <time>1970-01-01T00:00:00+00:00</time>
        <ele>458.0</ele>
      </trkpt>
      <trkpt lat="45.713763" lon="10.180609">
        <time>1970-01-01T00:00:00+00:00</time>
        <ele>455.0</ele>
      </trkpt>
      <trkpt lat="45.713488" lon="10.180934">
        <time>1970-01-01T00:00:00+00:00</time>
        <ele>459.0</ele>
      </trkpt>
      <trkpt lat="45.713194" lon="10.181195">
        <time>1970-01-01T00:00:00+00:00</time>
        <ele>460.0</ele>
      </trkpt>
      <trkpt lat="45.712862" lon="10.181293">
        <time>1970-01-01T00:00:00+00:00</time>
        <ele>454.0</ele>
      </trkpt>
      <trkpt lat="45.71242" lon="10.18144">
        <time>1970-01-01T00:00:00+00:00</time>
        <ele>446.0</ele>
      </trkpt>
      <trkpt lat="45.712241" lon="10.181556">
        <time>1970-01-01T00:00:00+00:00</time>
        <ele>445.0</ele>
      </trkpt>
    </trkseg>
  </trk>
</gpx>
